Wind_Speed
33 34 34 35 35 36 36 37 37 37 37 37 38 38 39 39 39 39 39 40 40 40 40 40 40 41 41 42 42 43 44 44 44 44 45 46 46 46 45 46 47 48 49
34 34 35 35 36 36 37 37 38 38 38 38 38 39 39 39 39 39 39 39 40 40 40 40 41 41 42 42 43 44 44 45 45 45 46 46 45 45 45 46 46 47 48
33 34 35 35 36 37 37 38 38 38 39 39 39 39 39 39 39 39 39 40 40 41 41 42 42 42 43 43 44 45 46 47 47 47 46 45 45 45 45 45 46 47 48
33 34 35 35 36 37 37 38 38 38 38 38 39 38 39 39 39 40 40 41 41 41 42 42 43 43 44 45 46 47 47 48 49 48 47 46 46 46 46 46 47 48 48
33 34 34 35 36 36 37 37 37 38 38 38 38 38 39 39 40 41 41 42 42 43 43 43 44 45 45 46 47 48 49 49 49 48 47 47 47 48 48 49 49 49 49
33 33 34 34 35 35 36 36 37 37 38 38 38 39 39 40 41 42 42 43 43 44 44 45 45 46 47 47 48 48 48 48 47 47 47 48 48 49 50 50 50 50 49
33 33 34 35 35 35 36 36 37 38 38 38 39 40 40 41 42 43 44 44 44 44 44 45 46 47 47 47 48 49 49 48 48 48 48 48 48 49 49 49 49 49 49
34 35 36 36 36 36 37 38 38 38 38 39 40 40 41 41 42 43 44 44 44 45 45 45 46 47 47 48 49 49 48 48 48 49 49 49 49 49 49 49 49 49 49
34 35 36 36 37 37 37 38 38 38 39 40 40 41 41 42 42 43 43 44 44 45 45 45 46 47 47 48 48 48 48 48 48 49 48 48 49 49 49 49 49 49 49
35 36 37 37 37 37 37 38 38 38 39 40 41 41 42 42 42 43 43 44 44 44 44 45 45 46 46 46 46 46 46 46 47 47 47 47 48 48 49 49 49 50 50
37 37 37 37 38 38 38 38 39 39 39 40 41 41 42 42 43 43 44 44 43 44 44 44 45 45 45 45 45 45 45 46 46 46 46 46 47 48 48 49 49 50 50
38 38 38 38 39 39 39 39 39 40 40 40 41 41 41 42 43 44 44 44 44 44 44 44 44 44 44 44 45 45 45 45 45 45 46 46 47 47 48 48 48 49 49
39 38 38 39 39 39 40 40 40 41 41 41 41 41 42 42 43 44 44 44 43 43 43 43 43 43 43 43 43 43 43 43 43 44 44 45 45 46 46 46 46 46 46
41 40 40 40 40 40 40 40 41 41 41 41 41 41 41 42 42 42 42 42 43 42 42 42 41 42 42 42 42 42 42 42 43 43 44 44 45 45 45 44 43 43 43
41 41 40 40 40 41 41 41 41 41 41 41 41 41 40 40 40 40 40 41 41 40 40 40 41 41 41 40 41 41 41 42 42 43 43 43 43 43 43 42 41 41 40
41 41 41 41 41 41 41 41 41 41 40 40 39 39 39 39 39 39 39 39 38 39 39 39 40 40 40 40 41 41 41 41 42 42 42 41 41 41 41 40 39 39 39
41 41 41 41 41 41 41 40 40 40 40 39 39 38 38 38 38 38 39 39 38 38 39 39 39 39 39 40 41 41 41 41 41 41 40 40 40 39 38 38 38 38 38
41 41 40 40 41 41 40 40 39 39 39 39 38 38 37 37 38 38 38 38 38 38 38 38 38 39 39 40 40 40 40 40 40 39 39 38 38 37 36 36 37 36 36
40 40 39 39 39 39 39 39 39 39 39 39 38 38 38 37 37 38 38 37 37 37 37 37 37 38 39 39 40 39 39 39 39 38 38 37 36 35 35 35 36 35 34
39 39 39 38 38 38 38 38 38 38 37 37 37 37 37 37 37 37 37 37 37 37 37 36 37 38 38 38 38 37 37 37 37 37 36 35 34 34 34 34 34 33 32
39 38 38 37 37 36 36 36 36 35 35 35 36 36 36 36 36 36 36 36 36 36 36 36 36 37 37 37 36 36 36 36 35 35 34 34 34 33 33 33 32 32 32
37 37 36 36 36 35 34 34 34 34 34 34 35 35 35 34 34 34 35 35 34 34 35 35 36 36 36 35 35 35 35 34 34 33 32 32 32 32 32 32 31 31 31
36 35 35 34 34 33 33 33 33 33 33 33 33 33 33 33 33 33 33 33 33 34 34 35 34 34 34 34 34 34 33 33 32 32 31 31 31 31 31 31 30 30 30
35 34 33 32 32 32 32 32 33 32 32 32 32 32 32 31 32 32 32 33 33 33 33 33 33 33 33 33 33 33 32 32 32 31 30 30 31 31 30 30 29 28 28
34 33 33 32 32 32 32 32 32 32 31 31 31 30 30 30 31 31 31 32 32 32 32 32 32 33 32 32 32 32 31 31 31 30 29 29 29 29 28 28 28 27 27
33 33 32 32 32 32 32 32 31 31 30 29 29 29 29 29 29 29 30 31 31 31 31 31 31 31 31 31 31 30 30 30 29 28 28 27 27 27 27 27 26 25 24
Wind_Direction
269 270 271 271 272 273 274 275 276 278 279 281 283 284 286 287 287 288 288 288 288 288 288 288 290 291 291 291 291 291 292 292 292 292 291 289 287 284 282 280 279 278 276
270 271 271 272 273 273 274 275 277 278 280 281 283 285 286 287 288 288 288 288 288 288 288 288 289 290 290 290 291 292 292 292 293 292 291 290 288 285 283 281 280 279 277
271 272 272 272 273 274 275 276 277 279 280 281 282 284 285 286 287 287 288 288 289 289 289 288 288 289 289 290 290 291 292 291 291 292 291 289 287 286 284 283 282 281 278
273 274 275 275 275 275 276 277 278 279 280 281 281 282 283 285 286 287 288 288 289 289 289 288 288 289 289 290 290 291 291 291 291 291 289 289 288 286 285 284 283 282 281
275 276 277 277 277 277 277 278 279 280 281 281 281 282 282 284 286 287 288 289 289 290 289 289 289 289 290 290 291 292 292 292 291 290 289 288 288 287 286 285 284 283 283
277 277 278 279 279 279 279 279 280 281 281 281 282 282 283 285 286 287 288 289 289 289 289 289 289 289 290 290 291 292 293 293 292 291 290 289 289 289 288 287 286 284 283
278 279 279 280 281 280 281 281 282 282 281 281 282 284 285 287 288 289 289 289 289 289 289 290 290 290 290 291 292 293 293 292 292 291 291 290 290 290 289 288 287 284 283
279 280 280 281 281 281 282 282 282 282 282 283 284 284 286 288 289 290 290 290 289 289 290 290 290 291 291 292 293 293 293 292 292 291 291 291 291 291 290 289 287 286 285
281 281 282 282 282 282 282 283 283 283 283 284 285 286 287 288 290 291 291 291 291 291 290 291 292 292 293 294 294 293 292 292 292 293 292 292 292 292 291 290 289 288 287
283 283 283 283 283 283 283 284 284 285 285 285 286 286 287 288 289 290 290 291 291 292 292 292 293 294 294 295 295 294 293 293 294 294 294 294 294 294 293 292 290 289 288
283 284 284 284 284 283 284 284 285 285 285 285 286 287 287 288 288 289 290 291 291 292 293 293 293 294 295 296 296 295 295 295 295 295 294 294 295 295 294 293 292 291 290
283 284 284 284 284 283 283 283 284 285 286 286 286 287 287 288 288 290 291 291 292 292 293 293 294 294 295 296 296 296 296 296 296 296 296 296 296 297 296 295 294 293 292
282 283 283 284 284 283 283 284 285 286 286 286 286 287 287 288 289 290 291 292 292 292 293 294 294 295 296 297 298 298 298 297 298 298 298 298 298 299 299 298 297 295 294
281 282 283 283 283 283 284 284 284 285 285 285 285 286 287 288 289 290 291 292 292 292 293 294 295 297 298 299 300 300 299 299 299 299 299 299 299 300 300 300 299 298 297
282 282 282 283 283 283 284 284 284 285 285 285 286 286 287 288 288 290 292 293 293 294 295 295 296 298 299 300 301 301 301 301 301 301 301 301 301 301 302 302 301 301 300
282 282 282 282 282 282 282 283 283 284 284 286 286 287 287 288 288 290 292 293 294 294 295 296 297 298 299 300 301 301 302 302 302 302 303 303 302 302 303 303 302 302 302
282 282 282 281 281 281 282 282 282 283 284 285 286 287 288 289 290 291 292 293 294 295 296 296 297 298 299 301 302 302 303 303 303 303 303 304 303 303 303 304 304 304 304
282 282 281 280 280 280 280 281 282 283 284 285 286 287 289 290 291 291 292 293 294 295 296 297 298 300 301 302 303 303 303 304 304 304 304 305 304 304 304 305 305 306 306
282 281 280 280 280 279 279 280 281 282 284 285 286 287 289 290 291 292 292 292 294 295 296 298 299 301 302 303 304 305 304 304 304 304 304 305 305 305 305 306 307 307 308
281 281 280 280 280 280 280 281 281 283 284 285 286 287 288 289 290 291 292 293 293 295 296 298 300 302 303 304 305 305 305 304 304 304 305 305 305 306 307 308 309 309 309
281 281 281 280 281 281 281 281 282 284 285 287 288 288 288 289 290 291 292 293 294 295 296 298 300 302 303 303 304 305 305 305 305 305 305 305 306 307 307 309 309 309 309
280 280 280 280 281 281 281 282 284 285 286 287 288 289 288 289 290 291 292 293 294 295 296 298 300 301 302 303 304 305 305 305 305 305 305 306 307 308 308 309 309 310 310
279 278 278 279 279 280 281 282 284 285 286 287 288 289 288 289 290 292 293 294 295 297 298 300 301 302 303 304 305 305 305 305 305 305 305 307 308 309 309 310 310 311 312
278 278 278 278 278 279 280 282 283 284 285 285 286 287 288 289 291 292 293 294 296 297 298 299 300 301 303 304 305 305 305 306 306 306 306 307 309 309 310 310 311 311 312
278 277 277 277 278 279 280 281 282 283 283 284 284 286 288 290 291 293 294 296 297 298 298 300 301 303 303 305 305 305 305 306 306 306 306 308 310 311 311 312 312 312 313
277 276 276 277 278 278 280 281 282 282 282 282 284 286 287 290 292 294 296 297 298 299 299 300 302 304 305 305 305 305 305 306 306 306 307 309 311 312 312 313 314 314 315
Height
5705 5705 5705 5704 5703 5703 5702 5701 5701 5699 5698 5697 5695 5693 5691 5689 5687 5684 5682 5680 5678 5676 5673 5671 5669 5667 5664 5661 5658 5655 5652 5648 5645 5642 5638 5635 5632 5629 5627 5625 5624 5622 5621
5696 5696 5695 5695 5694 5693 5692 5691 5691 5689 5688 5687 5685 5683 5681 5679 5677 5674 5672 5670 5667 5665 5663 5661 5658 5656 5653 5650 5647 5644 5640 5636 5633 5630 5626 5623 5619 5617 5615 5612 5610 5608 5607
5687 5687 5686 5685 5684 5683 5682 5681 5680 5679 5678 5676 5675 5673 5671 5669 5667 5664 5662 5660 5657 5655 5652 5650 5647 5645 5642 5639 5636 5632 5628 5624 5620 5617 5614 5610 5607 5604 5602 5600 5597 5595 5593
5678 5678 5676 5675 5674 5673 5672 5671 5670 5669 5667 5666 5664 5662 5661 5659 5656 5654 5652 5649 5646 5644 5641 5638 5636 5633 5630 5627 5623 5619 5616 5612 5608 5604 5601 5598 5594 5591 5589 5586 5584 5581 5579
5670 5668 5667 5666 5665 5663 5662 5661 5660 5658 5657 5655 5653 5652 5650 5648 5646 5643 5641 5638 5635 5632 5630 5627 5624 5621 5617 5614 5610 5607 5603 5599 5595 5591 5587 5584 5581 5578 5575 5572 5569 5567 5564
5661 5659 5658 5656 5655 5654 5652 5651 5649 5648 5646 5645 5643 5641 5639 5637 5634 5632 5629 5626 5623 5621 5618 5615 5611 5608 5605 5601 5597 5593 5589 5585 5581 5578 5574 5570 5567 5563 5560 5556 5554 5551 5549
5652 5650 5649 5647 5645 5644 5642 5641 5639 5637 5636 5634 5632 5630 5628 5626 5623 5620 5617 5615 5612 5609 5605 5602 5599 5596 5592 5589 5585 5580 5576 5571 5568 5564 5560 5556 5552 5549 5545 5541 5538 5534 5532
5642 5641 5639 5637 5635 5634 5632 5630 5628 5627 5625 5623 5621 5619 5617 5614 5611 5609 5606 5603 5599 5596 5593 5590 5587 5583 5579 5576 5572 5567 5562 5558 5554 5550 5546 5542 5537 5533 5529 5526 5522 5519 5517
5633 5631 5629 5627 5625 5623 5622 5620 5618 5616 5614 5612 5610 5608 5605 5603 5600 5597 5594 5591 5587 5584 5581 5578 5574 5570 5567 5563 5559 5554 5550 5545 5540 5536 5531 5527 5522 5518 5514 5510 5507 5504 5501
5623 5621 5619 5616 5615 5613 5611 5609 5607 5605 5603 5601 5599 5596 5594 5591 5588 5585 5582 5579 5576 5572 5569 5565 5562 5558 5553 5549 5545 5541 5537 5532 5527 5523 5518 5513 5509 5504 5500 5496 5492 5488 5485
5612 5610 5608 5606 5604 5602 5600 5598 5596 5594 5592 5590 5588 5585 5582 5579 5576 5573 5570 5567 5564 5560 5557 5553 5549 5545 5541 5537 5532 5528 5523 5519 5515 5510 5505 5500 5496 5491 5486 5481 5477 5473 5469
5602 5599 5597 5595 5593 5591 5589 5587 5585 5583 5580 5578 5576 5573 5570 5567 5565 5561 5558 5555 5552 5548 5545 5541 5537 5533 5528 5524 5520 5515 5511 5506 5502 5497 5492 5487 5483 5478 5473 5467 5463 5458 5453
5590 5588 5586 5584 5582 5580 5578 5576 5573 5571 5569 5566 5564 5561 5559 5556 5553 5550 5546 5543 5540 5536 5533 5529 5525 5521 5516 5512 5508 5503 5498 5494 5489 5485 5480 5475 5470 5465 5459 5454 5449 5444 5439
5578 5576 5574 5572 5570 5568 5566 5564 5561 5559 5557 5554 5552 5549 5547 5544 5541 5538 5534 5531 5528 5524 5521 5517 5513 5509 5505 5501 5496 5491 5487 5482 5477 5473 5468 5462 5457 5452 5447 5442 5437 5432 5427
5566 5564 5562 5560 5558 5556 5554 5552 5549 5547 5545 5543 5540 5537 5535 5532 5529 5526 5523 5520 5516 5513 5509 5506 5502 5498 5494 5489 5485 5480 5475 5471 5466 5461 5456 5450 5445 5440 5435 5430 5425 5421 5416
5552 5551 5549 5548 5546 5544 5542 5540 5537 5535 5533 5531 5528 5526 5523 5521 5518 5515 5512 5509 5505 5502 5499 5495 5491 5487 5483 5479 5474 5469 5464 5459 5454 5449 5444 5439 5434 5429 5424 5419 5414 5409 5405
5539 5538 5536 5535 5533 5531 5530 5528 5526 5524 5521 5519 5517 5514 5512 5510 5507 5504 5501 5498 5495 5491 5488 5484 5480 5477 5472 5468 5463 5458 5453 5448 5443 5438 5433 5428 5423 5418 5413 5409 5404 5399 5394
5526 5525 5523 5522 5520 5519 5517 5515 5514 5512 5511 5508 5506 5503 5501 5499 5496 5493 5490 5487 5484 5481 5477 5474 5470 5466 5461 5457 5452 5447 5442 5437 5432 5428 5423 5418 5413 5408 5403 5399 5394 5389 5384
5514 5512 5510 5509 5508 5506 5505 5503 5502 5500 5499 5497 5495 5492 5490 5488 5485 5483 5480 5477 5474 5470 5467 5463 5459 5455 5451 5446 5441 5436 5431 5427 5422 5417 5413 5408 5403 5399 5394 5389 5385 5380 5375
5501 5500 5498 5497 5495 5494 5493 5492 5490 5489 5487 5486 5484 5482 5479 5477 5474 5472 5469 5466 5463 5460 5456 5453 5449 5445 5440 5436 5431 5426 5422 5417 5412 5408 5403 5399 5394 5390 5385 5381 5376 5371 5367
5489 5487 5486 5485 5484 5483 5481 5480 5479 5477 5476 5475 5473 5471 5469 5466 5464 5461 5459 5456 5452 5449 5446 5442 5438 5434 5430 5426 5421 5417 5412 5408 5403 5399 5394 5390 5386 5381 5377 5372 5368 5363 5359
5476 5475 5475 5474 5473 5471 5470 5469 5468 5467 5465 5464 5462 5460 5458 5456 5453 5451 5448 5445 5442 5439 5436 5432 5428 5424 5420 5416 5412 5407 5403 5399 5394 5390 5386 5382 5378 5373 5369 5365 5360 5356 5351
5465 5464 5463 5462 5461 5460 5459 5459 5458 5456 5455 5453 5451 5449 5447 5445 5443 5441 5438 5435 5432 5429 5426 5422 5419 5415 5411 5407 5403 5398 5394 5390 5386 5382 5378 5374 5370 5366 5361 5357 5353 5348 5344
5453 5453 5452 5451 5451 5450 5449 5448 5447 5446 5444 5443 5441 5439 5437 5435 5433 5431 5428 5425 5422 5419 5416 5413 5409 5406 5402 5398 5394 5390 5386 5382 5378 5374 5370 5366 5362 5358 5354 5350 5345 5341 5337
5443 5442 5442 5441 5440 5440 5439 5438 5437 5436 5434 5433 5431 5430 5428 5426 5423 5421 5418 5416 5413 5410 5407 5403 5400 5397 5393 5389 5385 5381 5377 5374 5370 5366 5362 5359 5355 5351 5347 5343 5338 5334 5331
5432 5431 5431 5430 5430 5430 5429 5428 5427 5426 5425 5423 5422 5420 5419 5416 5414 5412 5409 5406 5404 5401 5398 5395 5391 5388 5384 5381 5377 5373 5369 5366 5362 5359 5355 5352 5348 5344 5340 5336 5332 5328 5325